Location: Trois-Rivi�res
(46.3500°N, 72.5500°W)
Time: 14:48:02
(UTC-05:00)

Daily predictions for brighter satellites

Satellite Brightness Start Highest point End
(mag) Time Altitude Azimuth Time Altitude Azimuth Time Altitude Azimuth
SJ-6B 4.5 17:44:57 10° E 17:46:56 14° ENE 17:48:57 10° NNE
Iridium 2 3.9 17:43:41 10° N 17:47:27 50° E 17:51:10 10° SSE
USA 238 DEB 3.9 17:43:22 10° SSW 17:50:04 57° ESE 17:56:52 10° NE
USA 238 3.9 17:43:28 10° SSW 17:50:10 57° ESE 17:56:58 10° NE
Landsat 4 4.3 17:49:44 10° NNE 17:53:12 35° E 17:56:40 10° SSE
Cosmos 2219 Rocket 2.3 17:57:45 10° NNW 18:03:28 88° WSW 18:09:08 10° SSE
Shenzhou-11 Module 3.5 18:05:16 10° WSW 18:07:59 31° SSW 18:10:42 10° SE
Okean 1-7 3.5 18:03:44 10° NNW 18:08:07 68° W 18:12:29 10° S
YAOGAN 1 3.5 18:04:06 10° S 18:08:20 54° W 18:12:36 10° NNW
Cosmos 2219 3.2 18:03:15 10° SSW 18:08:50 76° ESE 18:14:29 10° NNE
Envisat 4.0 18:05:46 10° ESE 18:09:49 25° ENE 18:13:52 10° N
Tiangong 2 1.9 18:07:17 10° WSW 18:10:19 43° S 18:12:57 13° ESE
Resurs 01 Rocket 3.3 18:09:01 12° E 18:10:38 14° ENE 18:13:02 10° NNE
Cosmos 1371 Rocket 4.0 18:05:43 10° NNW 18:11:00 81° ENE 18:16:18 10° SSE
Lacrosse 5 1.8 18:06:45 10° NW 18:11:51 76° NE 18:16:54 10° ESE
Cosmos 2237 Rocket 2.2 18:07:22 10° NNW 18:12:57 60° ENE 18:18:30 10° SE
SL-16 R/B 3.1 18:08:30 10° N 18:13:27 30° NE 18:18:08 11° ESE
NOSS 0 Rocket 3.9 18:07:31 10° NNW 18:13:45 83° ENE 18:19:58 10° SSE
Cosmos 2227 Rocket 2.8 18:09:51 10° S 18:14:55 35° ESE 18:20:00 10° NE
SKYMED 2 3.8 18:13:17 10° N 18:17:38 73° WNW 18:21:57 10° SSW
Cosmos 1733 Rocket 3.5 18:14:18 10° SSE 18:18:17 38° E 18:22:18 10° NNE
USA 215 3.6 18:13:16 10° ENE 18:19:33 47° SE 18:25:47 10° SSW
FREGAT/IRIS 2.9 18:17:58 10° SE 18:20:46 40° ENE 18:23:35 10° N
NOSS 3-3 (A) 4.5 18:14:25 10° NW 18:21:51 76° NE 18:29:55 10° SE
NOSS 3-3 (C) 4.5 18:14:32 10° NW 18:21:57 75° NE 18:30:01 10° SE
USA 186 4.0 18:23:29 12° NE 18:23:29 12° NE 18:24:07 10° NNE
H-2A R/B 2.7 18:20:37 10° SSE 18:24:31 73° ENE 18:28:26 10° N
Cosmos 2233 Rocket 4.0 18:18:10 10° N 18:24:31 82° E 18:30:47 10° S
NOSS 3-2 (C) 3.9 18:21:19 10° S 18:26:51 41° ESE 18:32:56 10° NE
HJ-1C 3.9 18:25:38 10° SE 18:28:50 38° ENE 18:32:03 10° N
Cosmos 2297 Rocket 2.6 18:24:21 10° S 18:29:34 40° ESE 18:34:48 10° NE
SeaSat 1 2.5 18:26:03 10° SE 18:30:54 62° ENE 18:35:48 10° NNW
DNEPR-1 R/B 4.1 18:27:08 10° S 18:30:56 34° ESE 18:33:20 19° ENE
SPOT 3 Rocket 3.9 18:27:28 10° S 18:32:39 72° WSW 18:37:53 10° NNW
CZ-2D R/B 3.9 18:29:13 10° SE 18:32:45 34° ENE 18:36:19 10° N
Cosmos 1939 Rocket 4.3 18:36:08 20° ENE 18:36:08 20° ENE 18:39:03 10° NNE
Cosmos 1464 Rocket 4.2 18:30:29 10° N 18:36:22 45° ENE 18:42:11 10° SSE
ALOS 3.8 18:33:57 10° SSW 18:38:20 39° W 18:42:44 10° NNW
Cosmos 2056 Rocket 3.8 18:35:13 10° NNW 18:40:38 74° WSW 18:46:02 10° SSE
Cosmos 2333 Rocket 3.0 18:35:25 10° NW 18:40:57 53° WSW 18:46:25 10° S
Okean 3 3.6 18:37:44 10° N 18:41:48 48° ENE 18:45:50 10° SSE
Cosmos 1812 2.7 18:39:20 10° N 18:43:10 57° ENE 18:46:59 10° SSE
Cosmos 1072 Rocket 4.5 18:39:33 10° N 18:45:39 58° ENE 18:51:47 10° SSE
Cosmos 1452 Rocket 3.6 18:42:01 10° NNW 18:47:13 55° ENE 18:51:49 13° SE
Cosmos 44 3.6 18:43:34 10° NNW 18:48:22 49° NE 18:50:58 26° ESE
Cosmos 2285 Rocket 4.0 18:44:40 10° SSW 18:51:01 88° WNW 18:57:27 10° NNE
STPSAT 2 (USA 217) 4.5 18:49:05 10° SSW 18:53:32 65° ESE 18:57:27 13° NNE
Cosmos 2082 3.7 18:48:36 10° S 18:54:03 55° ESE 18:59:34 10° NE
USA 267 3.4 18:50:11 23° E 18:54:23 62° NNE 19:00:49 10° NW
Cosmos 405 2.8 18:55:26 10° S 18:58:56 83° E 19:02:28 10° NNE
Cosmos 2084 Rocket 3.3 18:55:43 10° SSW 19:00:04 73° SE 19:01:50 34° NE
Spot 2 Rocket 4.0 18:59:09 32° E 19:00:10 36° ENE 19:04:46 10° N
Cosmos 1378 Rocket 3.5 18:56:47 10° N 19:01:08 58° ENE 19:04:22 17° SSE
Geosat 4.3 18:59:18 26° ENE 19:01:45 43° ESE 19:06:31 10° S
BREEZE-M DEB (TANK) 1.3 19:00:43 10° WNW 19:03:05 85° NNE 19:03:06 85° NE
YAOGAN 6 4.4 19:05:03 19° NNE 19:05:03 19° NNE 19:06:22 10° N
ERS-2 3.4 19:02:54 10° S 19:06:26 43° W 19:09:59 10° NNW
CENTAUR R/B 3.1 19:01:21 10° S 19:06:43 34° ESE 19:07:41 33° E
CZ-4C R/B 4.0 19:03:30 10° NNW 19:08:55 25° NNE 19:11:16 22° NE
Cosmos 2034 Rocket 4.0 19:02:39 10° N 19:08:59 59° ENE 19:15:16 10° SSE
Cosmos 1420 Rocket 3.9 19:06:37 10° NNW 19:11:54 71° ENE 19:14:47 27° SE
Cosmos 1891 Rocket 4.4 19:08:18 10° N 19:14:38 76° E 19:20:46 10° SSE
SJ-6B 3.4 19:17:29 10° S 19:21:10 53° W 19:24:55 10° NNW
Iridium 4 Rocket 3.4 19:18:18 10° N 19:23:31 82° W 19:28:14 10° S
Thor Agena Rocket 3.4 19:20:07 10° NNE 19:25:17 90° SSE 19:30:21 10° SSW
NOSS 3-2 (A) 3.7 19:20:49 10° SW 19:26:49 67° NW 19:32:16 16° NE
Cosmos 158 Rocket 3.7 19:22:08 10° S 19:26:58 64° ESE 19:27:14 63° E
Meteor 1-14 Rocket 4.4 19:25:01 10° SSW 19:30:45 78° W 19:36:41 10° N
Okean 1 3.6 19:27:15 10° N 19:30:28 55° N 19:30:28 55° N
ATLAS 3B R/B 3.6 19:24:33 10° WSW 19:31:26 47° NW 19:37:45 11° NNE
Cosmos 1633 3.7 19:29:34 10° SSW 19:31:46 34° SSW 19:31:46 34° SSW
USA 32 3.9 19:33:37 10° S 19:38:51 87° W 19:44:08 10° N
Cosmos 468 4.3 19:33:37 10° SSW 19:38:52 75° ESE 19:39:22 69° ENE
Cosmos 44 Rocket 3.2 19:36:04 10° NW 19:41:07 87° SW 19:41:32 75° SSE
Cosmos 1943 4.4 19:38:32 10° N 19:42:05 27° NNE 19:42:05 27° NNE
Resurs 1-3 3.7 19:44:57 75° W 19:44:57 75° W 19:49:19 10° NNW
Cosmos 1908 Rocket 4.0 19:40:49 10° SSW 19:45:15 61° WNW 19:49:42 10° N
Resurs 01 Rocket 1.7 19:46:34 72° WSW 19:46:34 72° WSW 19:51:00 10° NNW
Tiangong 2 3.7 19:44:00 10° WSW 19:45:13 18° WSW 19:45:13 18° WSW
Envisat 3.8 19:43:38 10° S 19:48:32 49° W 19:53:29 10° NNW
H-2A R/B 4.1 19:55:59 17° NNE 19:55:59 17° NNE 19:57:27 10° N
Lacrosse 5 3.9 19:50:25 10° WNW 19:54:21 23° SW 19:56:56 16° SSW
Cosmos 2237 Rocket 4.4 19:52:15 10° NW 19:56:32 23° W 20:00:49 10° SSW
SL-16 R/B 2.8 19:52:21 10° NW 19:57:51 52° WSW 20:00:05 33° SSW
Cosmos 2227 Rocket 3.4 19:53:35 10° SW 19:58:54 41° NW 20:04:14 10° NNE
Tsikada Rocket 3.9 19:54:20 10° S 20:00:46 89° E 20:07:14 10° N
USA 215 3.5 20:00:22 41° NE 20:02:43 65° NNW 20:09:10 10° WSW
ATLAS CENTAUR R/B 4.1 20:05:56 10° NNW 20:06:08 11° N 20:06:08 11° N
Cosmos 921 Rocket 4.3 20:04:46 10° NNW 20:07:55 41° NW 20:07:55 41° NW
Cosmos 1975 Rocket 4.4 20:05:38 10° NNW 20:08:25 35° NW 20:08:25 35° NW
Cosmos 2297 Rocket 3.5 20:08:26 10° WSW 20:13:38 37° NW 20:18:18 13° N
Cosmos 1603 4.3 20:10:08 10° NNW 20:14:17 50° NNW 20:14:17 50° NNW
NOSS 3-2 (C) 4.3 20:11:47 10° WSW 20:17:40 47° NW 20:20:33 30° NNE
USA 267 3.7 20:37:32 51° SW 20:37:32 51° SW 20:43:51 10° WNW
CENTAUR R/B 3.5 20:50:54 10° WSW 20:54:59 41° W 20:54:59 41° W
CZ-4C R/B 3.6 20:51:48 10° NW 20:56:28 45° NNW 20:56:28 45° NNW
